Winchester, TN

4:00 AM CST on November 24, 2017 (GMT -0600)
Winchester Municipal

Weather History for KBGF - January, 2013

Change the Weather History Date:

Saturday, January 12, 2013

  Actual Average (KTHA) Record (KTHA)
Temperature  
Mean Temperature 66 °F -  
Max Temperature 69 °F 44 °F 66 °F (2013)
Min Temperature 64 °F 25 °F 24 °F (2016)
Cooling Degree Days 2    
Growing Degree Days 16 (Base 50)    
Moisture  
Dew Point 62 °F    
Average Humidity 84    
Maximum Humidity 100    
Minimum Humidity 73    
Precipitation  
Precipitation 0.00 in - - ()
Sea Level Pressure  
Sea Level Pressure 30.04 in    
Wind  
Wind Speed 7 mph (South)    
Max Wind Speed 14 mph    
Max Gust Speed -    
Visibility 10 miles    
Events      
Averages and records for this station are not official NWS values.
T = Trace of Precipitation, MM = Missing Value Source: NWS Daily Summary

Daily Weather History Graph

Daily Weather History Graph

Search for Another Location

Airport or City:

Trip Planner

Search our weather history database for the weather conditions in past years. The results will help you decide how hot, cold, wet, or windy it might be!

Date:

Astronomy

Jan. 12, 2013 Rise Set
Actual Time 7:52 AM EST 5:52 PM EST
Civil Twilight 7:25 AM EST 6:20 PM EST
Nautical Twilight 6:53 AM EST 6:51 PM EST
Astronomical Twilight 6:23 AM EST 7:22 PM EST
Moon 8:14 AM EST (1/12) 7:16 PM EST (1/12)
Length of Visible Light 10h 55m
Length of Day
10h 00m
New Moon, 1% of the Moon is Illuminated
Jan 12
New Moon
Jan 18
First Quarter
Jan 26
Full
Feb 3
Last Quarter
Feb 10
New

Hourly Weather History & Observations

Time (EST) Temp. Dew Point Humidity Pressure Visibility Wind Dir Wind Speed Gust Speed Precip Events Conditions
12:35 AM 66.2 °F 62.6 °F 88% 30.07 in 10.0 mi South 6.9 mph - N/A   Overcast
12:55 AM 66.2 °F 62.6 °F 88% 30.07 in 10.0 mi South 6.9 mph - N/A   Overcast
1:35 AM 66.2 °F 62.6 °F 88% 30.07 in 10.0 mi South 8.1 mph - N/A   Mostly Cloudy
1:55 AM 66.2 °F 62.6 °F 88% 30.07 in 10.0 mi South 9.2 mph - N/A   Overcast
2:15 AM 66.2 °F 62.6 °F 88% 30.08 in 5.0 mi SSW 6.9 mph - N/A   Overcast
2:35 AM 66.2 °F 62.6 °F 88% 30.08 in 10.0 mi SSW 6.9 mph - N/A   Overcast
2:55 AM 66.2 °F 62.6 °F 88% 30.09 in 10.0 mi SW 5.8 mph - N/A   Overcast
3:15 AM 66.2 °F 62.6 °F 88% 30.09 in 10.0 mi South 5.8 mph - N/A   Overcast
3:35 AM 66.2 °F 62.6 °F 88% 30.09 in 10.0 mi South 3.5 mph - N/A   Overcast
3:55 AM 66.2 °F 62.6 °F 88% 30.08 in 10.0 mi South 4.6 mph - N/A   Overcast
4:15 AM 64.4 °F 60.8 °F 88% 30.07 in 10.0 mi SSW 5.8 mph - N/A   Mostly Cloudy
4:35 AM 66.2 °F 60.8 °F 83% 30.07 in 10.0 mi SW 5.8 mph - N/A   Mostly Cloudy
4:55 AM 66.2 °F 60.8 °F 83% 30.06 in 10.0 mi Calm Calm - N/A   Overcast
5:15 AM 66.2 °F 62.6 °F 88% 30.06 in 10.0 mi South 4.6 mph - N/A   Overcast
5:35 AM 66.2 °F 62.6 °F 88% 30.05 in 10.0 mi South 5.8 mph - N/A   Overcast
5:55 AM 66.2 °F 62.6 °F 88% 30.06 in 10.0 mi SSW 4.6 mph - N/A   Overcast
6:15 AM 66.2 °F 62.6 °F 88% 30.05 in 10.0 mi South 8.1 mph - N/A   Overcast
6:35 AM 64.4 °F 62.6 °F 94% 30.06 in 10.0 mi SSE 4.6 mph - N/A   Mostly Cloudy
6:55 AM 64.4 °F 62.6 °F 94% 30.06 in 10.0 mi South 8.1 mph - N/A   Mostly Cloudy
7:15 AM 64.4 °F 62.6 °F 94% 30.07 in 10.0 mi South 6.9 mph - N/A   Mostly Cloudy
7:35 AM 66.2 °F 62.6 °F 88% 30.07 in 10.0 mi South 8.1 mph - N/A   Overcast
7:55 AM 66.2 °F 62.6 °F 88% 30.08 in 10.0 mi South 6.9 mph - N/A   Overcast
8:15 AM 66.2 °F 62.6 °F 88% 30.08 in 10.0 mi South 6.9 mph - N/A   Overcast
8:35 AM 66.2 °F 62.6 °F 88% 30.09 in 10.0 mi South 8.1 mph - N/A   Mostly Cloudy
8:55 AM 66.2 °F 62.6 °F 88% 30.09 in 8.0 mi SSE 8.1 mph - N/A   Mostly Cloudy
9:15 AM 64.4 °F 62.6 °F 94% 30.09 in 5.0 mi SSE 4.6 mph - N/A   Overcast
9:35 AM 64.4 °F 62.6 °F 94% 30.10 in 10.0 mi South 4.6 mph - N/A   Mostly Cloudy
9:55 AM 64.4 °F 62.6 °F 94% 30.09 in 10.0 mi SSE 5.8 mph - N/A   Overcast
10:15 AM 66.2 °F 62.6 °F 88% 30.10 in 10.0 mi South 6.9 mph - N/A   Overcast
10:35 AM 64.4 °F 64.4 °F 100% 30.09 in 5.0 mi South 10.4 mph - N/A   Overcast
10:55 AM 66.2 °F 64.4 °F 94% 30.10 in 6.0 mi South 5.8 mph - N/A   Overcast
11:15 AM 66.2 °F 62.6 °F 88% 30.10 in 10.0 mi South 9.2 mph - N/A   Overcast
11:35 AM 66.2 °F 62.6 °F 88% 30.10 in 10.0 mi South 9.2 mph - N/A   Overcast
11:55 AM 68.0 °F 62.6 °F 83% 30.09 in 10.0 mi SSW 10.4 mph - N/A   Overcast
12:15 PM 68.0 °F 62.6 °F 83% 30.08 in 10.0 mi South 9.2 mph - N/A   Overcast
12:55 PM 68.0 °F 62.6 °F 83% 30.06 in 10.0 mi SSW 6.9 mph - N/A   Overcast
1:15 PM 68.0 °F 62.6 °F 83% 30.06 in 10.0 mi SSW 4.6 mph - N/A   Overcast
1:35 PM 68.0 °F 62.6 °F 83% 30.05 in 10.0 mi SSW 4.6 mph - N/A   Overcast
1:55 PM 69.8 °F 62.6 °F 78% 30.05 in 10.0 mi SSW 4.6 mph - N/A   Overcast
2:15 PM 69.8 °F 62.6 °F 78% 30.04 in 10.0 mi SSW 5.8 mph - N/A   Overcast
2:35 PM 69.8 °F 60.8 °F 73% 30.03 in 10.0 mi SSW 4.6 mph - N/A   Overcast
2:55 PM 69.8 °F 62.6 °F 78% 30.03 in 10.0 mi SSW 5.8 mph - N/A   Overcast
3:15 PM 69.8 °F 62.6 °F 78% 30.02 in 10.0 mi South 5.8 mph - N/A   Overcast
3:35 PM 69.8 °F 62.6 °F 78% 30.02 in 10.0 mi South 6.9 mph - N/A   Overcast
3:55 PM 69.8 °F 62.6 °F 78% 30.02 in 10.0 mi South 10.4 mph - N/A   Overcast
4:15 PM 69.8 °F 62.6 °F 78% 30.01 in 10.0 mi South 13.8 mph - N/A   Overcast
4:35 PM 68.0 °F 62.6 °F 83% 30.02 in 10.0 mi South 9.2 mph - N/A   Overcast
4:55 PM 68.0 °F 62.6 °F 83% 30.02 in 10.0 mi South 12.7 mph - N/A   Mostly Cloudy
5:15 PM 66.2 °F 62.6 °F 88% 30.02 in 10.0 mi South 10.4 mph - N/A   Mostly Cloudy
5:35 PM 66.2 °F 62.6 °F 88% 30.02 in 10.0 mi South 9.2 mph - N/A   Overcast
5:55 PM 66.2 °F 60.8 °F 83% 30.02 in 10.0 mi South 8.1 mph - N/A   Overcast
6:15 PM 66.2 °F 60.8 °F 83% 30.01 in 10.0 mi South 9.2 mph - N/A   Overcast
6:35 PM 66.2 °F 60.8 °F 83% 30.00 in 10.0 mi SSE 12.7 mph - N/A   Overcast
6:55 PM 66.2 °F 60.8 °F 83% 30.00 in 10.0 mi SSE 12.7 mph - N/A   Overcast
7:15 PM 66.2 °F 60.8 °F 83% 30.00 in 10.0 mi South 12.7 mph - N/A   Overcast
7:35 PM 66.2 °F 59.0 °F 78% 29.99 in 10.0 mi SSE 10.4 mph - N/A   Overcast
8:15 PM 66.2 °F 59.0 °F 78% 29.98 in 10.0 mi South 5.8 mph - N/A   Overcast
8:35 PM 66.2 °F 59.0 °F 78% 29.99 in 10.0 mi South 4.6 mph - N/A   Overcast
8:55 PM 66.2 °F 60.8 °F 83% 29.99 in 10.0 mi SSW 5.8 mph - N/A   Overcast
9:15 PM 66.2 °F 59.0 °F 78% 29.99 in 10.0 mi South 8.1 mph - N/A   Overcast
9:35 PM 66.2 °F 59.0 °F 78% 29.98 in 10.0 mi SSE 9.2 mph - N/A   Mostly Cloudy
9:55 PM 66.2 °F 57.2 °F 73% 29.98 in 10.0 mi South 9.2 mph - N/A   Mostly Cloudy
10:15 PM 66.2 °F 59.0 °F 78% 29.97 in 10.0 mi South 6.9 mph - N/A   Overcast
10:35 PM 66.2 °F 57.2 °F 73% 29.97 in 10.0 mi SSE 9.2 mph - N/A   Overcast
10:55 PM 66.2 °F 57.2 °F 73% 29.97 in 10.0 mi SSE 9.2 mph - N/A   Overcast
11:15 PM 64.4 °F 57.2 °F 77% 29.96 in 10.0 mi South 9.2 mph - N/A   Mostly Cloudy
11:35 PM 64.4 °F 57.2 °F 77% 29.97 in 10.0 mi South 5.8 mph - N/A   Mostly Cloudy
11:55 PM 64.4 °F 57.2 °F 77% 29.98 in 10.0 mi South 4.6 mph - N/A   Overcast